Ralph M Calhoun Memorial Airport

Jump to: basic info | weather | runways | comments

Related pages: nearby airports | nearby navaids | notams | map

Basic information (top)

Codes: TAL PATA
Location: lon 65.174400, lat -152.108994, elev 236 ft / 72 m msl
Status: small_airport
Scheduled airline service: no
Links: Wikipedia Mobile

Weather (top)

Current conditions (rec'd 2014/10/26 01:15Z):

PATA 260115Z 11009KT 10SM OVC010 M03/M05 A2988

Airport forecast (rec'd 2014/10/25 00:36Z):

TAF PATA 252331Z 2600/2624 10005KT P6SM -SN BKN015 OVC025 
     FM260300 10006KT 6SM -SN OVC015 
     FM261700 VRB04KT P6SM SCT025 BKN050 OVC100

Runways (top)

07/25: 4,400 x 150 ft (1,341 x 46 m) — other (GRVL-P) — not lighted

Latest comments (top)

Memorial for what?: As I did not know him personally, I did ... [read]

More... (top)

See also NOTAMs and nearby airports and navaids, or visit the Ralph M Calhoun Memorial Airport page at the main OurAirports website..